Weather History for Whiting Fld NAS, FL

Change the Weather History Date:

Thursday, April 4, 2013

  Actual Average Record
Temperature  
Mean Temperature 65 °F -  
Max Temperature 73 °F 73 °F 84 °F (2011)
Min Temperature 57 °F 53 °F 45 °F (2005)
Growing Degree Days 15 (Base 50)    
Moisture  
Dew Point 60 °F    
Average Humidity 93    
Maximum Humidity 100    
Minimum Humidity 66    
Precipitation  
Precipitation 0.00 in - - ()
Sea Level Pressure  
Sea Level Pressure 29.88 in    
Wind  
Wind Speed 3 mph (NW)    
Max Wind Speed 14 mph    
Max Gust Speed -    
Visibility 6 miles    
Events Fog    
Averages and records for this station are not official NWS values.
T = Trace of Precipitation, MM = Missing Value Source: NWS Daily Summary

Daily Weather History Graph

Daily Weather History Graph

Search for Another Location

Airport:

Trip Planner

Search our weather history database for the weather conditions in past years. The results will help you decide how hot, cold, wet, or windy it might be!

Date:

Astronomy

Apr. 04, 2013 Rise Set
Actual Time 6:33 AM CDT 7:09 PM CDT
Civil Twilight 6:08 AM CDT 7:33 PM CDT
Nautical Twilight 5:40 AM CDT 8:02 PM CDT
Astronomical Twilight 5:11 AM CDT 8:31 PM CDT
Moon 2:36 AM CDT (4/4) 1:48 PM CDT (4/4)
Length of Visible Light 13h 24m
Length of Day
12h 36m
Waning Crescent, 33% of the Moon is Illuminated
Apr 4
Waning Crescent
Apr 10
New
Apr 18
First Quarter
Apr 25
Full
May 2
Last Quarter

Hourly Weather History & Observations

Time (CDT) Temp. Dew Point Humidity Pressure Visibility Wind Dir Wind Speed Gust Speed Precip Events Conditions
12:56 AM 59.0 °F 59.0 °F 100% 29.91 in 7.0 mi Calm Calm - N/A   Overcast
1:56 AM 59.0 °F 59.0 °F 100% 29.88 in 6.0 mi ENE 6.9 mph - N/A   Overcast
2:56 AM 59.0 °F 59.0 °F 100% 29.85 in 5.0 mi NE 5.8 mph - N/A   Overcast
3:52 AM 60.8 °F 60.8 °F 100% 29.89 in 5.0 mi Calm Calm - N/A   Overcast
3:56 AM 60.1 °F 60.1 °F 100% 29.86 in 4.0 mi NNE 3.5 mph - N/A   Overcast
4:56 AM 60.1 °F 60.1 °F 100% 29.85 in 3.0 mi North 3.5 mph - N/A   Overcast
5:17 AM 60.8 °F 60.8 °F 100% 29.89 in 2.5 mi NNW 3.5 mph - N/A   Overcast
5:35 AM 59.0 °F 59.0 °F 100% 29.89 in 1.5 mi NE 3.5 mph - N/A   Overcast
5:56 AM 59.0 °F 59.0 °F 100% 29.86 in 1.2 mi Calm Calm - N/A   Overcast
6:27 AM 59.0 °F 59.0 °F 100% 29.91 in 0.8 mi Calm Calm - N/A   Mist
6:37 AM 59.0 °F 59.0 °F 100% 29.92 in 1.0 mi Calm Calm - N/A   Mist
6:56 AM 59.0 °F 59.0 °F 100% 29.88 in 1.0 mi Calm Calm - N/A   Mist
7:03 AM 59.0 °F 59.0 °F 100% 29.92 in 0.2 mi Calm Calm - N/A Fog Fog
7:56 AM 60.1 °F 60.1 °F 100% 29.89 in 0.2 mi Calm Calm - N/A Fog Fog
8:47 AM 60.8 °F 60.8 °F 100% 29.93 in 0.5 mi North 4.6 mph - N/A Fog Fog
8:56 AM 60.1 °F 60.1 °F 100% 29.90 in 0.5 mi NNW 5.8 mph - N/A Fog Fog
9:40 AM 60.8 °F 60.8 °F 100% 29.95 in 5.0 mi Calm Calm - N/A   Overcast
9:56 AM 63.0 °F 62.1 °F 97% 29.91 in 5.0 mi Calm Calm - N/A   Overcast
10:34 AM 62.6 °F 62.6 °F 100% 29.95 in 7.0 mi Calm Calm - N/A   Overcast
10:56 AM 64.0 °F 62.1 °F 93% 29.92 in 7.0 mi Calm Calm - N/A   Overcast
11:56 AM 64.9 °F 63.0 °F 93% 29.91 in 8.0 mi Calm Calm - N/A   Overcast
12:56 PM 68.0 °F 62.1 °F 81% 29.89 in 10.0 mi West 8.1 mph - N/A   Overcast
1:56 PM 71.1 °F 63.0 °F 75% 29.87 in 10.0 mi NW 5.8 mph - N/A   Mostly Cloudy
2:56 PM 71.1 °F 61.0 °F 70% 29.85 in 10.0 mi WNW 6.9 mph - N/A   Mostly Cloudy
3:56 PM 73.0 °F 61.0 °F 66% 29.83 in 10.0 mi Calm Calm - N/A   Mostly Cloudy
4:56 PM 72.0 °F 61.0 °F 68% 29.82 in 10.0 mi WSW 5.8 mph - N/A   Mostly Cloudy
5:56 PM 71.1 °F 60.1 °F 68% 29.81 in 10.0 mi Calm Calm - N/A   Mostly Cloudy
6:56 PM 68.0 °F 63.0 °F 84% 29.81 in 10.0 mi South 10.4 mph - N/A   Mostly Cloudy
7:56 PM 64.9 °F 62.1 °F 90% 29.81 in 10.0 mi South 5.8 mph - N/A   Mostly Cloudy
8:45 PM 64.4 °F 62.6 °F 94% 29.86 in 10.0 mi West 9.2 mph - N/A   Overcast
8:56 PM 64.0 °F 62.1 °F 93% 29.83 in 10.0 mi WNW 10.4 mph - N/A   Overcast
9:32 PM 62.6 °F 60.8 °F 94% 29.88 in 8.0 mi WNW 11.5 mph - N/A   Overcast
9:56 PM 62.1 °F 60.1 °F 93% 29.86 in 7.0 mi WNW 9.2 mph - N/A   Overcast
10:37 PM 60.8 °F 60.8 °F 100% 29.91 in 6.0 mi WNW 10.4 mph - N/A   Overcast
10:56 PM 59.0 °F 59.0 °F 100% 29.87 in 6.0 mi NW 13.8 mph - N/A   Overcast
11:36 PM 57.2 °F 57.2 °F 100% 29.90 in 5.0 mi NW 10.4 mph - N/A   Overcast
11:56 PM 57.0 °F 57.0 °F 100% 29.87 in 5.0 mi WNW 10.4 mph - N/A   Overcast